EZY27A LICA-LGAV

Flight info

Callsign EZY27A
Flight time 0h 42m
Altitude 31000
Route ARBUM DCT CRN M601 RUTOM N604 ARA B34 NEMES
Aircraft A320/M-SDE3FGHIRWY/LB1

Departure

Time 2026-04-23 12:55
Airport Lamezia Terme Sant'Eufemia International Airport (LICA)

Arrival

Time 2026-04-23 13:37
Airport Athens Eleftherios Venizelos International Airport (LGAV)
Time Latitude Longitude Altitude Speed Heading
2026-04-23 12:55 38.96767 16.25898 7997 ft 279 kts 88°
2026-04-23 12:55 38.96809 16.30977 9619 ft 289 kts 86°
2026-04-23 12:55 38.96964 16.36316 10700 ft 318 kts 85°
2026-04-23 12:55 38.97200 16.42379 11359 ft 356 kts 85°
2026-04-23 12:56 38.97459 16.48837 12714 ft 367 kts 85°
2026-04-23 12:56 38.97723 16.55496 14031 ft 378 kts 84°
2026-04-23 12:56 38.97985 16.62342 15177 ft 389 kts 84°
2026-04-23 12:56 38.98247 16.69370 16377 ft 398 kts 84°
2026-04-23 12:57 38.98511 16.76563 17534 ft 407 kts 84°
2026-04-23 12:57 38.98770 16.83913 18647 ft 416 kts 85°
2026-04-23 12:57 38.99030 16.91430 19622 ft 426 kts 85°
2026-04-23 12:57 38.99291 16.99118 20623 ft 435 kts 85°
2026-04-23 12:58 38.99431 17.06978 21569 ft 445 kts 92°
2026-04-23 12:58 38.98057 17.14810 22485 ft 455 kts 108°
2026-04-23 12:58 38.96147 17.22652 23345 ft 464 kts 107°
2026-04-23 12:58 38.94244 17.30629 24091 ft 471 kts 107°
2026-04-23 12:59 38.92312 17.38737 24791 ft 477 kts 107°
2026-04-23 12:59 38.90355 17.46848 25443 ft 482 kts 108°
2026-04-23 12:59 38.88341 17.55127 26096 ft 488 kts 108°
2026-04-23 12:59 38.86299 17.63469 26729 ft 493 kts 108°
2026-04-23 13:00 38.84230 17.71912 27319 ft 498 kts 108°
2026-04-23 13:00 38.82143 17.80437 27907 ft 503 kts 108°
2026-04-23 13:00 38.80024 17.89039 28458 ft 508 kts 108°
2026-04-23 13:00 38.77875 17.97731 28960 ft 513 kts 108°
2026-04-23 13:01 38.75700 18.06512 29435 ft 518 kts 109°
2026-04-23 13:01 38.73505 18.15342 29882 ft 522 kts 109°
2026-04-23 13:01 38.71292 18.24206 30459 ft 522 kts 109°
2026-04-23 13:01 38.69055 18.33043 30979 ft 521 kts 109°
2026-04-23 13:02 38.64618 18.50433 31029 ft 516 kts 109°
2026-04-23 13:02 38.60143 18.67877 31021 ft 516 kts 110°
2026-04-23 13:03 38.55657 18.85306 31015 ft 517 kts 110°
2026-04-23 13:03 38.52103 18.99058 31009 ft 518 kts 108°
2026-04-23 13:04 38.50578 19.08059 31001 ft 518 kts 102°
2026-04-23 13:04 38.49150 19.17084 30985 ft 519 kts 102°
2026-04-23 13:05 38.47703 19.26109 30982 ft 519 kts 102°
2026-04-23 13:05 38.46247 19.35139 30987 ft 520 kts 103°
2026-04-23 13:06 38.44065 19.48697 30979 ft 520 kts 103°
2026-04-23 13:07 38.42599 19.57733 30975 ft 520 kts 103°
2026-04-23 13:07 38.41134 19.66721 30974 ft 521 kts 103°
2026-04-23 13:08 38.39662 19.75762 30971 ft 521 kts 103°
2026-04-23 13:08 38.37567 19.88429 30963 ft 521 kts 103°
2026-04-23 13:09 38.34560 20.06515 30954 ft 522 kts 103°
2026-04-23 13:09 38.31515 20.24613 30948 ft 523 kts 104°
2026-04-23 13:10 38.29082 20.42885 30951 ft 524 kts 99°
2026-04-23 13:10 38.26835 20.61215 30953 ft 524 kts 101°
2026-04-23 13:11 38.24404 20.79502 30955 ft 524 kts 101°
2026-04-23 13:11 38.21996 20.97782 30949 ft 524 kts 101°
2026-04-23 13:12 38.19566 21.15938 30942 ft 524 kts 101°
2026-04-23 13:12 38.17103 21.34204 30938 ft 524 kts 101°
2026-04-23 13:12 38.15560 21.43211 30931 ft 521 kts 112°
2026-04-23 13:13 38.14183 21.47445 30929 ft 516 kts 121°
2026-04-23 13:13 38.10988 21.55604 30933 ft 516 kts 121°
2026-04-23 13:14 38.07819 21.63786 30837 ft 517 kts 120°
2026-04-23 13:14 38.06232 21.67889 30591 ft 517 kts 120°
2026-04-23 13:14 38.04643 21.71990 30348 ft 517 kts 121°
2026-04-23 13:14 38.03071 21.76038 30107 ft 517 kts 121°
2026-04-23 13:15 38.01474 21.80135 29840 ft 517 kts 121°
2026-04-23 13:15 37.99869 21.84239 29557 ft 517 kts 121°
2026-04-23 13:15 37.98267 21.88322 29272 ft 517 kts 121°
2026-04-23 13:15 37.96663 21.92402 28991 ft 517 kts 121°
2026-04-23 13:16 37.95056 21.96491 28712 ft 516 kts 121°
2026-04-23 13:16 37.93472 22.00528 28437 ft 508 kts 121°
2026-04-23 13:16 37.91923 22.04473 27932 ft 501 kts 121°
2026-04-23 13:16 37.90380 22.08397 27347 ft 496 kts 121°
2026-04-23 13:17 37.88845 22.12290 26762 ft 491 kts 121°
2026-04-23 13:17 37.87323 22.16142 26188 ft 487 kts 121°
2026-04-23 13:17 37.85809 22.19966 25644 ft 482 kts 121°
2026-04-23 13:17 37.84314 22.23741 24940 ft 475 kts 121°
2026-04-23 13:18 37.82842 22.27459 24057 ft 469 kts 121°
2026-04-23 13:18 37.81409 22.31075 23172 ft 463 kts 121°
2026-04-23 13:18 37.79973 22.34698 22258 ft 456 kts 121°
2026-04-23 13:18 37.78560 22.38260 21432 ft 449 kts 121°
2026-04-23 13:19 37.77165 22.41765 20638 ft 443 kts 120°
2026-04-23 13:19 37.75791 22.45210 19799 ft 436 kts 120°
2026-04-23 13:19 37.74436 22.48605 19017 ft 430 kts 120°
2026-04-23 13:19 37.73095 22.51960 18256 ft 424 kts 120°
2026-04-23 13:20 37.71773 22.55259 17369 ft 418 kts 119°
2026-04-23 13:20 37.70468 22.58519 16576 ft 411 kts 118°
2026-04-23 13:20 37.69240 22.61741 15808 ft 404 kts 116°
2026-04-23 13:20 37.68090 22.64942 15070 ft 396 kts 115°
2026-04-23 13:21 37.67357 22.67043 14593 ft 391 kts 115°
2026-04-23 13:21 37.65934 22.71165 13641 ft 381 kts 115°
2026-04-23 13:21 37.65061 22.74285 12860 ft 374 kts 100°
2026-04-23 13:21 37.64953 22.77521 12061 ft 367 kts 86°
2026-04-23 13:22 37.65105 22.80707 11335 ft 362 kts 85°
2026-04-23 13:22 37.65275 22.83867 11098 ft 361 kts 85°
2026-04-23 13:22 37.65392 22.86001 11002 ft 360 kts 85°
2026-04-23 13:22 37.65561 22.89117 10873 ft 360 kts 85°
2026-04-23 13:23 37.65727 22.92209 10624 ft 343 kts 85°
2026-04-23 13:23 37.65884 22.95123 10378 ft 323 kts 85°
2026-04-23 13:23 37.66032 22.97888 10140 ft 311 kts 85°
2026-04-23 13:23 37.66176 23.00598 9922 ft 306 kts 85°
2026-04-23 13:24 37.66316 23.03280 9797 ft 305 kts 85°
2026-04-23 13:24 37.66454 23.05949 9656 ft 304 kts 85°
2026-04-23 13:24 37.66590 23.08603 9524 ft 303 kts 85°
2026-04-23 13:24 37.66727 23.11221 9395 ft 302 kts 85°
2026-04-23 13:25 37.66866 23.13858 9259 ft 300 kts 85°
2026-04-23 13:25 37.67003 23.16487 9127 ft 299 kts 85°
2026-04-23 13:25 37.67138 23.19101 8992 ft 298 kts 85°
2026-04-23 13:25 37.67271 23.21710 8868 ft 297 kts 85°
2026-04-23 13:26 37.67403 23.24305 8735 ft 295 kts 85°
2026-04-23 13:26 37.67532 23.26858 8603 ft 294 kts 85°
2026-04-23 13:26 37.67663 23.29437 8474 ft 293 kts 85°
2026-04-23 13:26 37.67792 23.32001 8347 ft 292 kts 85°
2026-04-23 13:27 37.67920 23.34555 8211 ft 291 kts 85°
2026-04-23 13:27 37.68049 23.37107 8089 ft 290 kts 85°
2026-04-23 13:27 37.68176 23.39644 7954 ft 289 kts 85°
2026-04-23 13:27 37.68301 23.42180 7601 ft 287 kts 85°
2026-04-23 13:28 37.68424 23.44682 7249 ft 284 kts 85°
2026-04-23 13:28 37.68547 23.47145 6906 ft 282 kts 85°
2026-04-23 13:28 37.68667 23.49605 6559 ft 280 kts 85°
2026-04-23 13:28 37.68784 23.52052 6202 ft 276 kts 85°
2026-04-23 13:29 37.68898 23.54456 5839 ft 273 kts 85°
2026-04-23 13:29 37.69013 23.56834 5476 ft 270 kts 85°
2026-04-23 13:29 37.69126 23.59193 5124 ft 268 kts 85°
2026-04-23 13:29 37.69238 23.61525 5002 ft 265 kts 85°
2026-04-23 13:30 37.69345 23.63813 5003 ft 252 kts 85°
2026-04-23 13:30 37.69443 23.65949 5004 ft 234 kts 84°
2026-04-23 13:30 37.69533 23.67932 5006 ft 218 kts 84°
2026-04-23 13:30 37.69620 23.69799 5009 ft 214 kts 84°
2026-04-23 13:31 37.69825 23.71651 5013 ft 212 kts 70°
2026-04-23 13:31 37.70465 23.73299 5013 ft 209 kts 51°
2026-04-23 13:31 37.71485 23.74570 5015 ft 205 kts 35°
2026-04-23 13:31 37.72637 23.75653 5011 ft 206 kts 35°
2026-04-23 13:32 37.73788 23.76736 4908 ft 207 kts 35°
2026-04-23 13:32 37.74944 23.77827 4673 ft 209 kts 35°
2026-04-23 13:32 37.76124 23.78941 4387 ft 213 kts 35°
2026-04-23 13:32 37.77311 23.80064 4098 ft 213 kts 35°
2026-04-23 13:33 37.78497 23.81186 3808 ft 212 kts 36°
2026-04-23 13:33 37.79678 23.82303 3525 ft 211 kts 35°
2026-04-23 13:33 37.80838 23.83401 3260 ft 208 kts 35°
2026-04-23 13:33 37.81969 23.84472 2972 ft 195 kts 35°
2026-04-23 13:34 37.83006 23.85455 2703 ft 178 kts 35°
2026-04-23 13:34 37.83956 23.86355 2474 ft 164 kts 35°
2026-04-23 13:34 37.84836 23.87189 2256 ft 153 kts 35°
2026-04-23 13:34 37.85678 23.87986 2072 ft 149 kts 36°
2026-04-23 13:35 37.86483 23.88750 1859 ft 139 kts 35°
2026-04-23 13:35 37.87240 23.89468 1681 ft 134 kts 36°
2026-04-23 13:35 37.87985 23.90175 1493 ft 133 kts 35°
2026-04-23 13:35 37.88720 23.90872 1308 ft 130 kts 34°
2026-04-23 13:36 37.89437 23.91552 1114 ft 131 kts 36°
2026-04-23 13:36 37.90164 23.92242 930 ft 130 kts 35°
2026-04-23 13:36 37.90889 23.92930 744 ft 130 kts 36°
2026-04-23 13:36 37.91609 23.93615 575 ft 129 kts 35°
2026-04-23 13:37 37.92330 23.94300 397 ft 130 kts 35°
2026-04-23 13:37 37.93031 23.94969 290 ft 117 kts 35°
2026-04-23 13:37 37.93555 23.95462 293 ft 69 kts 38°
2026-04-23 13:37 37.93772 23.95660 295 ft 26 kts 26°
2026-04-23 13:38 37.93952 23.95722 296 ft 26 kts
2026-04-23 13:38 37.94005 23.95730 297 ft 0 kts
2026-04-23 13:39 37.94017 23.95730 301 ft 4 kts 350°
2026-04-23 13:39 37.94033 23.95713 298 ft 0 kts 309°
2026-04-23 13:40 37.94031 23.95644 300 ft 6 kts 235°
2026-04-23 13:40 37.94029 23.95642 299 ft 1 kts 225°
2026-04-23 13:40 37.94007 23.95619 299 ft 4 kts 219°
2026-04-23 13:41 37.93984 23.95595 299 ft 4 kts 219°
2026-04-23 13:41 37.93959 23.95570 300 ft 5 kts 217°
2026-04-23 13:41 37.93901 23.95515 296 ft 17 kts 217°
2026-04-23 13:41 37.93776 23.95400 294 ft 24 kts 216°
2026-04-23 13:42 37.93646 23.95274 295 ft 23 kts 217°
2026-04-23 13:42 37.93520 23.95158 294 ft 22 kts 216°
2026-04-23 13:42 37.93423 23.95063 292 ft 16 kts 216°
2026-04-23 13:42 37.93333 23.94979 292 ft 16 kts 217°
2026-04-23 13:43 37.93245 23.94893 287 ft 16 kts 218°
2026-04-23 13:43 37.93153 23.94807 286 ft 16 kts 216°
2026-04-23 13:43 37.93054 23.94711 285 ft 22 kts 218°
2026-04-23 13:43 37.92935 23.94598 283 ft 21 kts 217°
2026-04-23 13:44 37.92843 23.94508 282 ft 12 kts 226°
2026-04-23 13:44 37.92845 23.94417 282 ft 11 kts 302°
2026-04-23 13:44 37.92891 23.94340 282 ft 12 kts 307°
2026-04-23 13:44 37.92945 23.94251 285 ft 14 kts 308°
2026-04-23 13:45 37.92998 23.94164 281 ft 10 kts 307°
2026-04-23 13:45 37.93042 23.94135 281 ft 6 kts
2026-04-23 13:45 37.93082 23.94161 286 ft 7 kts 37°
2026-04-23 13:45 37.93103 23.94181 282 ft 2 kts 37°
2026-04-23 13:46 37.93108 23.94186 282 ft 0 kts 37°